Wind_Speed
16 11 5 1 2 4 9 11 13 13 12 9 8 7 7 7 7 8 9 8 7 6 5 4 3 2 2 3 4 6 9 10 13 12 13 13 14 16 17 18 19 19 20
15 10 4 2 2 6 8 11 13 13 13 11 9 8 7 6 6 7 8 9 10 9 7 6 4 3 2 3 6 9 10 9 9 12 12 12 13 16 18 19 21 19 15
21 9 5 3 2 5 9 10 12 13 12 11 9 7 6 5 5 5 6 7 9 10 9 7 6 5 5 4 5 6 7 7 10 13 16 16 15 17 18 17 17 14 14
10 8 7 4 1 5 8 11 13 13 13 11 9 7 5 5 4 5 6 7 9 11 11 9 8 6 4 5 5 4 4 5 7 10 12 13 14 14 15 15 14 13 12
9 8 6 4 1 6 8 10 13 15 15 10 8 7 4 3 3 4 5 7 8 10 10 9 8 7 7 6 6 6 6 7 8 9 10 12 12 14 13 12 15 17 23
10 8 7 5 2 6 10 12 13 16 15 9 7 6 6 4 5 5 5 6 7 9 10 11 9 7 6 6 6 6 7 7 8 8 9 10 13 13 14 19 20 20 23
9 10 9 7 5 7 14 13 16 18 16 11 7 7 7 5 6 7 7 8 7 9 9 10 11 11 10 10 9 8 7 7 8 9 10 12 13 15 16 17 17 18 19
10 12 9 5 7 9 12 11 15 20 17 13 10 10 7 8 7 6 6 8 8 8 10 11 12 12 13 13 13 12 11 11 11 11 12 13 14 15 15 15 16 17 19
15 16 11 8 11 12 12 13 15 20 16 11 9 12 8 8 7 7 7 6 8 10 12 13 12 12 13 13 16 14 13 13 13 14 14 15 16 15 15 16 16 18 20
14 17 12 14 15 13 12 15 15 16 12 10 17 16 9 8 9 8 8 9 11 11 12 13 14 16 18 16 17 17 14 15 15 16 17 18 18 18 19 19 19 20 21
8 24 23 17 16 14 13 15 17 13 10 14 17 17 9 10 10 9 13 14 12 13 12 12 13 18 16 18 19 21 17 16 15 17 17 17 18 20 20 21 20 19 19
10 14 18 14 15 14 14 15 15 12 12 15 17 14 10 9 8 10 12 14 14 17 15 15 14 16 20 19 21 22 17 17 18 18 19 20 21 20 20 19 17 16 16
12 10 10 11 14 15 14 14 13 14 12 15 14 14 12 9 12 12 13 13 18 17 14 15 15 23 18 17 23 18 17 18 19 20 20 21 20 19 17 17 17 16 16
14 15 14 16 14 12 13 13 13 12 13 14 13 12 11 13 15 15 18 15 18 15 13 18 19 21 23 24 18 18 19 19 19 18 17 16 16 16 16 16 17 18 18
17 15 16 15 11 11 14 13 12 13 13 13 12 11 11 13 13 13 13 9 11 14 16 12 20 22 22 18 18 18 17 15 15 16 17 18 19 19 19 19 19 18 18
16 16 15 13 11 13 13 13 12 13 12 12 11 10 11 11 12 12 12 13 15 14 13 16 13 15 15 16 15 14 14 14 14 15 16 17 18 19 21 21 20 20 18
16 15 14 12 13 14 13 12 12 11 11 11 11 11 11 11 11 11 10 11 10 10 10 11 11 12 12 12 13 14 15 14 15 16 17 18 18 19 20 20 20 20 19
15 14 13 14 14 13 11 10 9 10 10 10 10 10 9 9 9 8 8 7 7 8 8 8 9 10 10 11 13 13 15 15 15 16 17 18 18 18 19 20 20 19 19
15 15 15 15 13 10 8 7 8 8 8 7 7 7 7 6 5 5 5 6 6 6 6 7 8 9 10 12 12 12 13 15 16 17 18 20 20 19 18 18 18 18 18
14 15 15 12 8 6 7 7 4 5 5 5 5 5 5 5 5 5 5 6 7 7 7 8 9 10 8 9 12 13 16 18 18 18 20 20 19 19 19 19 19 18 18
15 14 13 9 7 4 5 6 3 3 4 5 4 4 5 4 5 7 8 7 7 8 10 10 10 11 10 12 14 15 17 19 21 21 21 22 22 22 21 20 20 19 19
15 14 11 9 9 6 5 4 4 5 5 5 5 6 8 9 11 13 12 8 7 8 8 9 10 12 14 14 17 18 19 20 21 21 22 21 22 24 25 23 22 24 25
15 14 12 9 7 6 8 8 4 3 2 4 9 10 10 11 12 15 13 13 11 12 14 15 15 18 18 19 20 23 24 25 26 26 26 26 27 27 28 27 26 25 27
15 14 13 10 10 8 9 5 3 4 7 10 10 10 14 14 17 13 18 15 14 14 17 18 20 21 20 23 25 27 28 28 28 30 30 30 29 30 30 31 31 29 29
19 16 12 11 9 10 7 6 7 12 12 11 13 14 16 20 18 18 20 19 17 18 20 22 22 23 25 26 28 28 29 29 29 30 31 31 31 31 31 31 30 29 30
18 17 12 12 11 10 8 10 13 18 17 21 19 18 23 26 28 22 18 21 22 22 23 24 25 26 27 28 28 28 28 29 30 30 31 31 31 31 31 31 31 30 29
Wind_Direction
195 182 195 268 3 28 33 28 28 29 30 21 9 11 20 23 32 29 24 24 27 35 36 26 23 332 282 248 230 235 239 246 245 224 246 255 266 272 274 275 277 280 284
220 177 177 239 354 11 19 19 20 20 24 23 15 9 20 32 35 47 42 32 25 26 25 28 33 21 336 281 267 264 265 262 247 253 257 271 270 273 276 279 285 285 289
155 173 189 225 9 13 13 13 14 8 10 13 14 8 5 22 44 47 48 35 18 17 18 16 14 359 340 327 313 288 276 265 252 253 260 268 276 277 279 281 282 280 286
157 181 205 218 294 15 8 357 359 355 352 350 3 1 358 353 20 19 10 15 14 16 17 16 17 15 359 330 328 316 297 283 271 264 264 268 270 274 275 284 287 285 270
172 196 234 223 150 356 343 346 353 346 340 325 340 345 329 329 326 344 343 353 1 -0 354 348 353 354 352 349 345 334 317 305 295 286 279 273 275 281 290 279 286 273 286
207 205 219 236 311 316 315 337 338 337 334 322 311 322 316 309 296 305 318 329 343 354 359 3 360 354 356 351 341 329 319 312 305 300 297 297 300 287 257 268 262 267 280
212 198 198 225 242 291 310 324 326 328 328 325 319 314 292 289 293 299 311 319 324 341 353 357 357 358 360 358 349 335 322 313 306 303 301 299 296 292 288 285 284 282 284
210 217 207 250 264 273 292 318 318 317 315 314 325 309 281 275 289 294 303 322 324 335 336 338 343 346 349 352 347 334 324 318 312 312 314 317 313 306 299 291 285 282 285
214 237 241 223 256 275 293 310 318 310 311 301 313 313 291 258 266 272 281 303 314 323 334 330 330 331 337 339 346 331 317 313 311 310 310 310 310 308 301 293 286 283 284
236 244 248 265 271 274 294 304 301 302 305 269 304 316 293 245 251 266 284 300 296 308 319 317 325 328 329 329 335 332 314 309 309 308 308 304 305 306 304 300 294 290 288
298 243 247 264 269 281 293 298 299 291 289 262 288 302 283 268 242 258 269 284 295 315 307 303 309 312 316 318 320 325 313 307 304 305 307 304 301 305 305 303 300 295 292
285 244 236 254 272 278 285 291 293 262 286 277 288 292 278 259 245 272 280 271 281 314 306 289 297 308 307 306 311 312 304 303 304 306 305 305 306 306 305 303 301 298 295
273 281 278 280 276 265 282 293 298 279 288 285 287 284 286 288 236 253 264 267 288 298 282 294 298 314 312 299 308 304 305 306 305 306 307 309 310 310 310 309 308 305 302
263 255 258 269 265 272 291 296 289 286 285 288 290 281 286 273 278 255 272 267 268 294 276 305 287 297 299 309 307 308 313 314 313 312 313 313 313 314 313 311 310 311 310
263 256 258 260 256 278 287 287 287 291 292 287 288 290 282 287 281 282 272 268 278 269 283 280 296 291 302 307 315 320 321 321 321 321 321 319 318 317 316 315 313 310 304
265 263 257 244 263 280 280 277 282 285 286 291 291 288 288 292 295 293 289 280 269 289 291 288 287 297 306 312 318 323 324 324 322 320 318 318 318 317 315 313 310 308 304
265 258 257 259 270 271 271 276 282 284 286 285 283 282 282 286 289 289 291 295 297 293 288 293 297 304 311 316 320 322 324 326 328 329 328 328 326 320 316 313 309 308 307
275 268 263 266 270 273 277 283 291 296 295 290 285 282 280 280 282 284 286 283 279 278 285 296 303 307 314 322 325 328 329 329 330 331 332 333 332 329 325 321 316 310 304
273 269 267 267 269 274 281 290 298 302 295 287 286 288 287 285 287 289 288 288 291 295 299 298 305 319 322 318 320 327 333 336 337 338 336 332 331 332 331 329 325 319 314
258 261 262 263 267 285 287 280 292 293 289 293 290 288 281 283 295 305 313 315 316 311 311 312 308 307 312 329 340 333 332 333 336 335 338 342 339 331 328 330 330 326 320
250 253 252 253 245 257 282 285 281 279 287 286 271 269 275 299 323 344 348 353 347 343 329 311 308 313 308 308 324 328 327 331 332 330 329 329 331 333 334 322 317 318 319
242 236 225 225 239 233 235 252 258 278 281 284 289 309 322 332 334 329 324 314 319 310 319 300 298 311 313 315 319 321 321 321 319 319 319 316 313 311 313 316 312 306 301
235 223 218 204 224 263 287 242 221 234 252 335 337 334 328 319 326 316 313 318 309 297 304 307 306 309 306 307 312 315 318 317 315 313 312 310 309 308 307 306 304 300 298
225 212 203 232 260 246 231 243 260 309 311 300 288 299 308 302 302 301 298 284 283 287 288 291 294 300 305 309 310 311 311 311 309 308 309 309 308 307 306 303 300 296 289
208 204 238 235 228 228 245 270 293 310 297 299 285 290 290 310 298 289 287 280 283 286 289 296 300 304 305 305 306 308 308 308 308 308 308 309 308 307 306 304 303 300 294
216 228 219 231 236 246 269 300 293 291 287 298 298 293 299 298 289 290 272 272 278 283 291 300 305 306 305 305 306 306 306 306 306 305 305 305 304 304 304 304 303 302 300
Height
3173 3177 3180 3181 3181 3179 3177 3176 3174 3172 3170 3169 3168 3167 3165 3164 3162 3161 3160 3159 3158 3156 3155 3154 3153 3154 3155 3155 3156 3157 3157 3158 3159 3160 3161 3162 3162 3161 3161 3160 3160 3159 3158
3171 3180 3181 3181 3182 3181 3179 3177 3175 3173 3171 3169 3168 3167 3166 3164 3164 3163 3162 3161 3160 3158 3157 3155 3154 3154 3154 3155 3155 3155 3155 3156 3157 3156 3156 3156 3158 3158 3157 3156 3155 3154 3153
3173 3178 3181 3182 3182 3181 3179 3177 3176 3175 3173 3171 3169 3169 3167 3166 3165 3164 3164 3163 3162 3160 3158 3156 3155 3154 3154 3154 3154 3154 3154 3154 3154 3155 3156 3155 3155 3154 3153 3152 3151 3150 3149
3176 3179 3180 3181 3182 3181 3180 3178 3176 3176 3174 3172 3170 3169 3168 3168 3166 3165 3165 3163 3162 3160 3159 3157 3156 3155 3154 3154 3153 3153 3153 3152 3152 3152 3152 3152 3151 3150 3149 3148 3147 3147 3144
3177 3179 3180 3180 3180 3181 3179 3178 3176 3175 3173 3172 3170 3169 3168 3167 3166 3165 3165 3164 3162 3161 3159 3157 3156 3155 3154 3153 3152 3152 3152 3151 3151 3150 3150 3149 3148 3146 3146 3145 3144 3143 3141
3177 3178 3179 3181 3181 3180 3178 3177 3175 3174 3172 3171 3169 3168 3167 3166 3165 3164 3164 3163 3162 3161 3159 3158 3156 3155 3154 3152 3151 3151 3150 3150 3149 3148 3147 3146 3144 3143 3143 3141 3141 3140 3138
3174 3178 3177 3178 3178 3178 3176 3174 3173 3172 3170 3169 3167 3166 3166 3164 3164 3163 3163 3162 3161 3160 3159 3157 3156 3154 3153 3151 3150 3149 3148 3147 3146 3145 3144 3143 3141 3140 3138 3137 3135 3134 3133
3172 3175 3175 3175 3177 3176 3172 3172 3170 3169 3168 3166 3165 3164 3164 3163 3162 3162 3161 3161 3160 3159 3158 3156 3155 3153 3152 3150 3148 3147 3145 3144 3143 3141 3140 3139 3137 3135 3134 3132 3131 3130 3129
3166 3170 3172 3173 3174 3174 3171 3169 3167 3167 3166 3163 3163 3162 3161 3161 3161 3160 3160 3160 3159 3158 3157 3155 3154 3153 3151 3149 3147 3145 3143 3142 3140 3138 3137 3135 3133 3132 3130 3129 3127 3126 3124
3161 3167 3169 3171 3172 3171 3167 3166 3166 3164 3163 3162 3161 3160 3158 3159 3159 3158 3158 3157 3157 3156 3155 3153 3152 3150 3149 3147 3145 3143 3141 3139 3137 3135 3133 3131 3129 3128 3126 3124 3123 3121 3119
3161 3163 3166 3168 3168 3166 3163 3162 3162 3160 3159 3160 3158 3157 3156 3155 3156 3156 3155 3155 3154 3153 3152 3151 3150 3148 3146 3145 3142 3140 3137 3135 3133 3131 3129 3127 3125 3124 3121 3119 3117 3116 3114
3160 3161 3162 3164 3164 3162 3160 3160 3159 3159 3157 3157 3155 3154 3153 3153 3153 3153 3152 3151 3150 3149 3148 3147 3147 3145 3143 3141 3139 3136 3134 3132 3130 3128 3126 3124 3121 3119 3117 3115 3114 3112 3110
3156 3156 3157 3158 3161 3159 3158 3157 3156 3155 3154 3154 3152 3151 3150 3149 3150 3150 3148 3147 3146 3146 3145 3144 3142 3140 3138 3136 3134 3132 3130 3128 3126 3124 3122 3119 3117 3115 3113 3111 3110 3108 3106
3152 3152 3152 3153 3153 3153 3152 3152 3152 3152 3151 3150 3149 3148 3147 3146 3145 3145 3143 3143 3142 3142 3140 3140 3138 3136 3134 3132 3129 3128 3125 3123 3121 3119 3117 3115 3113 3111 3109 3107 3106 3104 3102
3147 3147 3148 3149 3147 3148 3148 3148 3148 3147 3147 3146 3145 3144 3143 3142 3141 3140 3139 3138 3138 3137 3136 3136 3133 3132 3129 3127 3125 3123 3121 3119 3117 3115 3114 3112 3110 3107 3105 3103 3101 3100 3098
3143 3144 3143 3143 3143 3143 3143 3144 3143 3143 3142 3142 3141 3140 3139 3138 3138 3137 3135 3135 3134 3133 3132 3130 3129 3128 3126 3124 3122 3120 3118 3116 3115 3113 3111 3109 3106 3103 3101 3099 3097 3095 3094
3139 3139 3138 3138 3138 3139 3139 3139 3139 3139 3138 3138 3138 3137 3136 3136 3135 3134 3133 3131 3131 3130 3128 3126 3125 3124 3123 3122 3119 3117 3116 3114 3112 3109 3107 3105 3102 3099 3097 3094 3092 3090 3088
3133 3132 3133 3134 3134 3135 3135 3135 3135 3135 3135 3135 3135 3133 3133 3132 3131 3130 3129 3128 3127 3126 3125 3124 3123 3122 3120 3119 3117 3115 3112 3110 3108 3106 3103 3101 3098 3096 3093 3090 3088 3086 3084
3129 3129 3130 3131 3131 3131 3131 3131 3131 3132 3132 3132 3131 3131 3130 3129 3128 3127 3126 3125 3124 3123 3123 3122 3121 3120 3118 3117 3115 3112 3110 3107 3105 3103 3100 3097 3094 3092 3089 3087 3085 3082 3080
3125 3126 3126 3126 3126 3127 3128 3128 3128 3129 3129 3129 3129 3128 3127 3127 3126 3126 3125 3124 3123 3122 3121 3120 3119 3118 3116 3114 3111 3109 3107 3104 3102 3100 3097 3095 3092 3089 3087 3084 3081 3079 3077
3120 3120 3121 3121 3123 3124 3125 3126 3126 3127 3127 3127 3126 3125 3125 3124 3124 3124 3123 3122 3120 3119 3118 3117 3116 3114 3113 3111 3109 3107 3104 3101 3098 3096 3094 3091 3088 3086 3083 3080 3078 3076 3073
3115 3116 3117 3118 3120 3121 3122 3122 3123 3123 3123 3123 3123 3123 3122 3122 3121 3120 3119 3118 3118 3117 3116 3114 3113 3111 3109 3106 3104 3102 3100 3097 3095 3092 3090 3087 3085 3082 3079 3076 3073 3071 3068
3110 3112 3114 3116 3118 3119 3120 3121 3121 3121 3120 3121 3120 3120 3120 3119 3118 3117 3115 3114 3113 3112 3111 3109 3107 3105 3103 3100 3098 3096 3094 3091 3089 3086 3083 3081 3078 3074 3071 3069 3067 3064 3061
3106 3108 3111 3112 3114 3115 3117 3117 3117 3117 3117 3117 3117 3116 3116 3116 3114 3112 3111 3109 3108 3106 3105 3104 3101 3099 3097 3094 3092 3089 3086 3083 3081 3077 3074 3072 3069 3066 3062 3060 3057 3055 3053
3101 3104 3106 3109 3110 3112 3112 3112 3113 3113 3112 3112 3112 3111 3110 3109 3108 3106 3105 3103 3102 3100 3099 3097 3094 3092 3089 3087 3084 3081 3078 3075 3072 3069 3066 3063 3059 3056 3054 3051 3048 3045 3042
3098 3099 3102 3104 3106 3107 3108 3108 3108 3108 3107 3106 3105 3105 3104 3102 3100 3098 3098 3097 3096 3094 3092 3089 3087 3084 3082 3079 3076 3073 3070 3067 3064 3061 3058 3054 3051 3048 3045 3041 3038 3035 3033